Regional Weather Roundup
Issued by NWS

Home | Current Version | Previous Version | Text Only | Print | Product List | Glossary Off
Versions: 1 2 3 4 5 6 7 8 9 10 11 12 13 14 15 16 17 18 19 20 21 22 23 24 25 26 27 28 29 30 31 32 33 34 35 36 37 38 39 40 41 42 43 44 45 46 47 48 49 50

000
ASUS43 KDTX 291901
RWRMI
MICHIGAN HOURLY REGIONAL WEATHER ROUNDUP
NATIONAL WEATHER SERVICE DETROIT/PONTIAC MI
200 PM EST THU JAN 29 2015

NOTE: "FAIR" INDICATES FEW OR NO CLOUDS BELOW 12,000 FEET WITH NO
SIGNIFICANT WEATHER AND/OR OBSTRUCTION TO VISIBILITY.

MIZ047>049-052>055-059>063-066>070-074>076-081>083-292000-
SOUTHEAST LOWER MICHIGAN

CITY           SKY/WX    TMP DP  RH WIND       PRES   REMARKS
ADRIAN         CLOUDY    35  29  78 NW8       29.73S WCI  29
ALMA           CLOUDY    30  28  91 NW8       29.76S FOG     WCI  23
ANN ARBOR      CLOUDY    34  29  82 W8        29.72R WCI  27
BAD AXE        LGT SNOW  28  26  89 NW9       29.72S WCI  20
CARO           LGT SNOW  30  27  88 W5        29.72S WCI  25
DETROIT CITY   CLOUDY    36  26  67 W5        29.71F WCI  32
DETROIT        LGT SNOW  34  28  79 W6        29.72S WCI  29
FLINT          LGT SNOW  32  28  85 NW10      29.73S FOG     WCI  24
GROSSE ILE     FLURRIES  36  30  80 W6        29.70S WCI  31
HILLSDALE      LGT SNOW  34  31  87 NW13G21   29.73R WCI  25
HOWELL         SNOW      31  28  86 NW8       29.72R VSB 1/2 WCI  24

CITY           SKY/WX    TMP DP  RH WIND       PRES   REMARKS
JACKSON        SNOW      32  30  92 NW10      29.74R VSB 1/2 WCI  24
LAMBERTVILLE   LGT SNOW  36  32  87 W6        29.73R WCI  31
LANSING        LGT SNOW  30  28  92 NW13      29.76R VSB 1   WCI  20
LAPEER         CLOUDY    31  26  83 NW6       29.71F WCI  25
MASON          LGT SNOW  31  28  91 NW7       29.74R VSB 3/4 WCI  24
MONROE         LGT SNOW  36  32  87 W8        29.71R WCI  29
MT. CLEMENS    LGTSLEET  33  26  75 VRB3      29.68F
PONTIAC        LGTSLEET  32  26  78 NW13      29.69S WCI  22
PORT HOPE        N/A     28  23  81 W6        29.70F WCI  22
PORT HURON     LGT SNOW  32  27  80 W5        29.70F WCI  27
TRI CITIES     LGT SNOW  31  26  82 NW10      29.75S VSB 1   WCI  22
SAGINAW HB     LGT SNOW  32  30  93 NW8       29.74S VSB 1   WCI  25
$$
MIZ043>046-050>051-056>058-064>065-071>073-077>080-292000-
SOUTHWEST LOWER MICHIGAN

CITY           SKY/WX    TMP DP  RH WIND       PRES   REMARKS
BATTLE CREEK   CLOUDY    34  29  82 NW12      29.78R HAZE    WCI  25
BENTON HARBOR  CLOUDY    33  29  85 NW12G23   29.87R FOG     WCI  24
BIG RAPIDS     CLOUDY    32  28  84 N14G24    29.77S WCI  22
COLDWATER      LGT SNOW  32  32  98 NW12      29.76R VSB 1   WCI  23
FREMONT        CLOUDY    32  27  82 N16       29.80S WCI  21
HOLLAND        CLOUDY    34  28  79 NW16G26   29.84R WCI  24
GRAND RAPIDS   LGT SNOW  32  27  81 NW12      29.80R WCI  23
IONIA          LGT SNOW  32  30  91 NW9       29.77R WCI  24
KALAMAZOO      LGT RAIN  33  28  81 NW13      29.80R WCI  24
LUDINGTON      CLOUDY    36  29  76 N15G25    29.85R WCI  26
MARSHALL       LGT SNOW  32  30  94 NW8       29.76R WCI  24
MOUNT PLEASANT LGT SNOW  32  27  81 NW6       29.76S WCI  26
MUSKEGON       FLURRIES  34  27  75 N18G29    29.85R WCI  23
SOUTH HAVEN    CLOUDY    34  30  85 N15G25    29.85R WCI  24
$$
MIZ016>042-292000-
NORTHERN LOWER MICHIGAN

CITY           SKY/WX    TMP DP  RH WIND       PRES   REMARKS
ALPENA         CLOUDY    28  23  81 NW8       29.74F WCI  20
BEAVER ISLAND  CLOUDY    31  26  82 NW10G21   29.81R WCI  22
BELLAIRE       CLOUDY    32  29  89 NW3       29.80S FOG
CADILLAC       MIX PCPN  29  27  90 NW13      29.76S WCI  19
CHARLEVOIX     CLOUDY    31  30  94 NW17G24   29.82R FOG     WCI  20
FRANKFORT      CLOUDY    32  28  83 NW14G29   29.84S WCI  22
GAYLORD        CLOUDY    26  26 100 NW8       29.73S FOG     WCI  18
GRAYLING       CLOUDY    28  26  89 NW9       29.75S WCI  20
HARBOR SPRINGS LGT SNOW  28  27  96 CALM      29.77S VSB 3/4
HOUGHTON LAKE  CLOUDY    29  24  82 NW14G22   29.74S WCI  18
MANISTEE       CLOUDY    34  25  69 N15G25    29.85R WCI  24
OSCODA         CLOUDY    29  26  86 NW12      29.72F FOG     WCI  20
PELLSTON       CLOUDY    30  27  88 NW16      29.77S FOG     WCI  19
ROGERS CITY    CLOUDY    29  26  89 W7        29.75F WCI  22
TRAVERSE CITY  LGT SNOW  33  28  81 NW20G25   29.80S FOG     WCI  21
$$
MIZ007>008-015-292000-
EASTERN UPPER MICHIGAN

CITY           SKY/WX    TMP DP  RH WIND       PRES   REMARKS
KINROSS        CLOUDY    28  28 100 W7        29.74S WCI  21
MACKINAC ISLAN CLOUDY    29  28  99 W10G16    29.75S FOG     WCI  19
NEWBERRY       CLOUDY    28  27  94 NW16G29   29.78R FOG     WCI  16
S. S. MARIE    CLOUDY    28  23  81 W7        29.74R WCI  21
MUNISING         N/A     25  20  81 N25G37    29.89R WCI   9
$$
MIZ004>006-011>014-085-292000-
CENTRAL UPPER MICHIGAN

CITY           SKY/WX    TMP DP  RH WIND       PRES   REMARKS
MANISTIQUE     CLOUDY    28  24  87 NW18G26   29.83R FOG     WCI  15
ESCANABA       CLOUDY    30  21  69 N14G24    29.89R WCI  20
MENOMINEE      CLOUDY    34  23  64 N13G23    29.89S WCI  25
SAWYER-GWINN   CLOUDY    25  21  86 N18G26    29.88R FOG     WCI  11
$$
MIZ001>003-009>011-084-292000-
WESTERN UPPER MICHIGAN

CITY           SKY/WX    TMP DP  RH WIND       PRES   REMARKS
IRON MOUNTAIN  CLOUDY    30  21  69 NW28G38   29.89  WCI  15
HOUGHTON       LGT SNOW  20  13  74 N23G35    29.99R WCI   3
COPPER HARBOR    N/A     19  14  81 N33G41    29.99R WCI  -1
IRONWOOD       CLOUDY    25  19  80 NW17G29   30.05R WCI  11
$$

ABBREVIATIONS USED IN REMARKS
   TC - TEMPERATURE IN CELSIUS
  WCI - WIND CHILL INDEX
   HX - HEAT INDEX
  VSB - VISIBILITY




USA.gov is the U.S. government's official web portal to all federal, state and local government web resources and services.